Location: MAC-Johnson Site
(33.6264°N, 81.2093°W)
Time: 19:32:30
(UTC-04:00)

BlueWalker 3 - Pass Details

Date: 14 September 2024
Orbit: 472 x 485 km, 53.2° (Epoch: 10 October)

Event Time Altitude Azimuth Distance (km) Brightness Sun altitude
Rises 21:58:33 0° 299° (WNW) 2,547 6.7 -30.2°
Reaches altitude 10° 22:01:08 10° 282° (WNW) 1,666 5.4 -30.6°
Enters shadow 22:02:24 16° 265° (W) 1,346 4.7 -30.9°
